This demonstration page uses our WeatherBlox Daily Observations layout. Learn more.

Left ArrowRight Arrow

39.51506, -84.39828

Hourly Observations for March 16, 2018

Temp ( °F °C ) Dew Point ( °F °C ) Humidity (%) Winds ( mph kmh ) Pressure ( in mb ) Visibility ( mi km ) Precip ( " mm )
12:15 am 00:15 Clear 37 2.5 24 -4.2 62 62 N 12 19 29.97 1015 10 16.0934 N/A
12:35 am 00:35 Clear 36 2.4 24 -4.3 62 62 N 12 19 29.97 1015 10 16.0934 N/A
12:55 am 00:55 Clear 36 2 23 -4.9 61 61 N 13 20 30 1016 10 16.0934 N/A
1:15 am 01:15 Clear 34 1.3 23 -5 63 63 N 8 13 30 1016 10 16.0934 N/A
1:35 am 01:35 Clear 33 0.5 22 -5.3 65 65 N 5 7 30 1016 10 16.0934 N/A
1:55 am 01:55 Clear 32 0.1 22 -5.4 67 67 NNE 6 9 30 1016 10 16.0934 N/A
2:15 am 02:15 Clear 32 -0.2 22 -5.8 66 66 N 6 9 30.03 1017 10 16.0934 N/A
2:35 am 02:35 Clear 31 -0.3 21 -6.2 65 65 N 6 9 30.03 1017 10 16.0934 N/A
2:55 am 02:55 Clear 31 -0.6 19 -7.2 61 61 N 12 19 30.03 1017 10 16.0934 N/A
3:15 am 03:15 Clear 30 -1 18 -7.9 60 60 N 9 15 30.06 1018 10 16.0934 N/A
3:35 am 03:35 Clear 30 -1.1 16 -8.8 56 56 N 12 19 30.06 1018 10 16.0934 N/A
3:55 am 03:55 Clear 29 -1.7 14 -9.8 54 54 N 13 20 30.06 1018 10 16.0934 N/A
4:15 am 04:15 Clear 28 -2 12 -11.3 49 49 N 8 13 30.06 1018 10 16.0934 N/A
4:35 am 04:35 Clear 27 -2.7 11 -11.7 50 50 N 12 19 30.09 1019 10 16.0934 N/A
4:55 am 04:55 Clear 27 -3 11 -11.9 51 51 NNE 9 15 30.09 1019 10 16.0934 N/A
5:15 am 05:15 Clear 26 -3.4 11 -11.6 53 53 NNE 8 13 30.09 1019 10 16.0934 N/A
5:35 am 05:35 Clear 26 -3.4 10 -12 52 52 NNE 9 15 30.09 1019 10 16.0934 N/A
5:55 am 05:55 Clear 26 -3.6 10 -12.4 51 51 NNE 9 15 30.09 1019 10 16.0934 N/A
6:15 am 06:15 Clear 25 -4 10 -12.4 52 52 NNE 7 11 30.12 1020 10 16.0934 N/A
6:35 am 06:35 Clear 24 -4.2 10 -12.4 53 53 NNE 12 19 30.12 1020 10 16.0934 N/A
6:55 am 06:55 Clear 24 -4.4 9 -12.7 53 53 NNE 8 13 30.15 1021 10 16.0934 N/A
7:15 am 07:15 Clear 24 -4.5 8 -13.1 51 51 NNE 6 9 30.15 1021 10 16.0934 N/A
7:35 am 07:35 Clear 23 -5.1 9 -12.8 55 55 NNE 6 9 30.15 1021 10 16.0934 N/A
7:55 am 07:55 Sunny 23 -5.2 9 -12.6 56 56 NNE 6 9 30.18 1022 10 16.0934 N/A
8:15 am 08:15 Sunny 23 -5.2 10 -12.2 58 58 N 6 9 30.18 1022 10 16.0934 N/A
8:35 am 08:35 Sunny 24 -4.4 11 -11.9 56 56 NNE 8 13 30.21 1023 10 16.0934 N/A
8:55 am 08:55 Sunny 25 -4.1 10 -12.1 54 54 NNE 15 24 30.21 1023 10 16.0934 N/A
9:15 am 09:15 Sunny 26 -3.6 10 -12 53 53 NE 12 19 30.21 1023 10 16.0934 N/A
9:35 am 09:35 Sunny 27 -2.9 11 -11.6 52 52 NNE 8 13 30.21 1023 10 16.0934 N/A
9:55 am 09:55 Sunny 27 -2.8 11 -11.8 50 50 NNE 9 15 30.24 1024 10 16.0934 N/A
10:15 am 10:15 Sunny 28 -2.2 11 -11.6 49 49 ENE 7 11 30.24 1024 10 16.0934 N/A
10:35 am 10:35 Sunny 28 -2.2 11 -11.9 48 48 N 6 9 30.24 1024 10 16.0934 N/A
10:55 am 10:55 Sunny 29 -1.4 11 -11.9 45 45 ENE 7 11 30.24 1024 10 16.0934 N/A
11:15 am 11:15 Sunny 30 -1 11 -11.8 44 44 E 5 7 30.24 1024 10 16.0934 N/A
11:35 am 11:35 Sunny 30 -1 10 -12.5 42 42 N N/A 30.24 1024 10 16.0934 N/A
11:55 am 11:55 Sunny 32 -0.1 10 -12.2 40 40 E 6 9 30.24 1024 10 16.0934 N/A
12:15 pm 12:15 Sunny 33 0.4 10 -12 39 39 ENE 6 9 30.24 1024 10 16.0934 N/A
12:35 pm 12:35 Sunny 34 1.3 12 -11.1 40 40 E 3 6 30.24 1024 10 16.0934 N/A
12:55 pm 12:55 Sunny 34 0.9 10 -12 38 38 N N/A 30.24 1024 10 16.0934 N/A
1:15 pm 13:15 Sunny 35 1.7 11 -11.9 36 36 N 3 6 30.24 1024 10 16.0934 N/A
1:35 pm 13:35 Sunny 36 2.3 11 -11.6 35 35 E 5 7 30.24 1024 10 16.0934 N/A
1:55 pm 13:55 Sunny 37 2.9 11 -11.5 34 34 N 3 6 30.24 1024 10 16.0934 N/A
2:15 pm 14:15 Sunny 38 3.4 11 -11.4 33 33 SE 5 7 30.21 1023 10 16.0934 N/A
2:35 pm 14:35 Sunny 37 2.8 10 -12.3 32 32 N N/A 30.21 1023 10 16.0934 N/A
2:55 pm 14:55 Sunny 38 3.3 11 -11.5 33 33 W 5 7 30.21 1023 10 16.0934 N/A
3:15 pm 15:15 Sunny 39 3.8 12 -11.1 33 33 E 5 7 30.18 1022 10 16.0934 N/A
3:35 pm 15:35 Sunny 40 4.7 13 -10.3 33 33 NE 3 6 30.18 1022 10 16.0934 N/A
3:55 pm 15:55 Sunny 42 5.3 13 -10.3 32 32 N 3 6 30.15 1021 10 16.0934 N/A
4:15 pm 16:15 Sunny 42 5.3 13 -10.8 31 31 NE 6 9 30.15 1021 10 16.0934 N/A
4:35 pm 16:35 Sunny 42 5.7 13 -10.8 30 30 ESE 3 6 30.12 1020 10 16.0934 N/A
4:55 pm 16:55 Sunny 43 5.9 13 -10.7 30 30 E 6 9 30.12 1020 10 16.0934 N/A
5:15 pm 17:15 Sunny 42 5.4 13 -10.8 30 30 SSE 3 6 30.12 1020 10 16.0934 N/A
5:35 pm 17:35 Sunny 43 5.9 13 -10.4 30 30 ESE 7 11 30.12 1020 10 16.0934 N/A
5:55 pm 17:55 Sunny 42 5.6 13 -10.8 30 30 E 7 11 30.12 1020 10 16.0934 N/A
6:15 pm 18:15 Sunny 42 5.6 13 -10.7 30 30 E 6 9 30.12 1020 10 16.0934 N/A
6:35 pm 18:35 Sunny 41 5.2 13 -10.4 32 32 SE 10 17 30.12 1020 10 16.0934 N/A
6:55 pm 18:55 Sunny 41 4.9 13 -10.4 32 32 SE 7 11 30.12 1020 10 16.0934 N/A
7:15 pm 19:15 Sunny 41 4.8 13 -10.3 33 33 ESE 8 13 30.12 1020 10 16.0934 N/A
7:35 pm 19:35 Sunny 40 4.4 14 -10 35 35 ESE 6 9 30.09 1019 10 16.0934 N/A
7:55 pm 19:55 Clear 40 4.2 14 -9.9 35 35 E 6 9 30.12 1020 10 16.0934 N/A
8:15 pm 20:15 Clear 40 4.4 14 -10.2 34 34 E 3 6 30.09 1019 10 16.0934 N/A
8:35 pm 20:35 Clear 39 4.1 14 -10.1 35 35 ESE 3 6 30.12 1020 10 16.0934 N/A
8:55 pm 20:55 Clear 38 3.3 15 -9.5 39 39 E 3 6 30.15 1021 10 16.0934 N/A
9:15 pm 21:15 Clear 37 2.9 16 -9.1 41 41 N N/A 30.15 1021 10 16.0934 N/A
9:35 pm 21:35 Clear 34 1 21 -6.3 59 59 N N/A 30.12 1020 10 16.0934 N/A
9:55 pm 21:55 Clear 31 -0.3 22 -5.4 69 69 ENE 6 9 30.12 1020 10 16.0934 N/A
10:15 pm 22:15 Clear 33 0.3 18 -7.7 55 55 E 6 9 30.12 1020 10 16.0934 N/A
10:35 pm 22:35 Clear 33 0.3 17 -8.4 52 52 E 5 7 30.12 1020 10 16.0934 N/A
10:55 pm 22:55 Clear 31 -0.7 20 -6.4 66 66 E 5 7 30.12 1020 10 16.0934 N/A
11:15 pm 23:15 Clear 31 -0.3 20 -6.5 63 63 N N/A 30.12 1020 10 16.0934 N/A
11:35 pm 23:35 Clear 32 -0.2 19 -7.1 60 60 NE 5 7 30.09 1019 10 16.0934 N/A
11:55 pm 23:55 Mostly Cloudy 31 -0.8 20 -6.6 65 65 NE 3 6 30.09 1019 10 16.0934 N/A

Powered by AerisWeather